{"data":{"norad_id":66498,"intl_designator":"2025-263P","name":"STARLINK-35907","alt_names":[],"object_type":"PAYLOAD","status":"ACTIVE","operator":null,"country":"US","launch_date":"2025-11-15","launch_site_code":"AFETR","launch_vehicle":null,"mission":null,"orbit_class":"UNKNOWN","rcs_meters":null,"size_class":null,"mass_kg":null,"dimensions":null,"purposes":["comms"],"wikipedia_slug":null,"has_3d_model":false,"image_url":null,"decayed_at":null,"tle_current":{"epoch":"2026-05-24T17:08:26.022048Z","epoch_age_seconds":100047,"freshness":"FRESH","line1":"1 66498U 25263P   26144.71419007  .00027915  00000+0  10197-2 0  9990","line2":"2 66498  43.0020 281.5502 0000972 268.3803  91.6938 15.27592914 30526","mean_motion":15.27592914,"eccentricity":9.72e-5,"inclination_deg":43.002,"raan_deg":281.5502,"arg_perigee_deg":268.3803,"mean_anomaly_deg":91.6938,"bstar":0.0010197,"rev_number":3052,"period_min":94.26595179925,"perigee_km":482.34352362036,"apogee_km":483.6773306802,"semimajor_km":6861.1474271503,"source":"CELESTRAK","updated_at":"2026-05-25T13:38:21.244492Z"}}}